軌道要素
Epoch 2017 Jan. 7.0 TT = JDT 2457760.5
T 2016 Dec. 29.09858 TT MPCW
q 1.9078097 (2000.0) P Q
z +0.0098347 Peri. 92.28124 +0.01666550 -0.93560515
+/-0.0000036 Node 339.09933 -0.25049135 +0.33754899
e 0.9812373 Incl. 81.31112 +0.96797538 +0.10345865
From 157 observations 2016 Oct. 10-2017 Nov. 25, mean residual 0".5.
|